Weather observations for the past three days for
Horseshoe Bay Resort Airpark
Imperial (Metric)
Date Time (cdt) Wind (mph) Vis. (mi.) Weather Sky Cond. Temperature (ºF) Relative Humidity Wind Chill (°F) Heat Index (°F) Pressure Precipitation (in)
Air Dwpt 6 hour altimeter (in) sea level (mb) 1 hr 3 hr 6 hr
Max. Min.
25 11:15 N 6 10.00 Mostly Cloudy SCT031 SCT037 BKN046 84.4 70.2 62% 89 30.15 0.0
25 10:55 N 3 10.00 Partly Cloudy SCT031 SCT038 82.9 70.2 65% 87 30.15 0.0
25 10:35 N 5 10.00 Fair CLR 83.3 71.8 68% 89 30.15 0.0
25 10:15 NW 3 10.00 Fair CLR 82.2 71.8 71% 87 30.15 0.0
25 09:55 N 3 10.00 Fair CLR 81.3 72.1 74% 86 30.15 0.0
25 09:35 N 6 10.00 Fair CLR 79.9 71.8 76% 84 30.15 0.0
25 09:15 NW 7 10.00 Fair CLR 78.1 71.6 81% 80 30.15 0.0
25 08:55 NW 3 10.00 Fair CLR 76.8 71.8 85% 78 30.14 0.0
25 08:35 W 3 10.00 Fair CLR 75.4 72.3 90% 75 30.15 0.0
25 08:15 Calm 10.00 Fair CLR 74.1 72.5 95% 30.14 0.0
25 07:55 Calm 10.00 Fair CLR 72.7 72 98% 30.14 0.0
25 07:35 Calm 10.00 Fair CLR 71.2 70.7 98% 30.14 0.0
25 07:15 Calm 10.00 Fair CLR 70.7 70.2 98% 30.13 0.0
25 06:55 Calm 10.00 Fair CLR 70.3 69.8 74.8 70.2 98% 30.12 0.0
25 06:35 Calm 10.00 Fair CLR 70.3 69.8 98% 30.12 0.0
25 06:15 Calm 10.00 Fair CLR 70.3 69.8 98% 30.12 0.0
25 05:55 Calm 10.00 Fair CLR 70.7 70 98% 30.12 0.0
25 05:35 Calm 10.00 Fair CLR 70.7 70 98% 30.12 0.0
25 05:15 Calm 10.00 Fair CLR 70.3 69.8 98% 30.12 0.0
25 04:55 Calm 10.00 Fair CLR 70.7 70 98% 30.12 0.0
25 04:35 Calm 10.00 Fair CLR 70.7 69.8 97% 30.12 0.0
25 04:15 Calm 10.00 Fair CLR 70.3 69.8 98% 30.12 0.0
25 03:55 Calm 10.00 Fair CLR 70.7 69.8 97% 30.12 0.0
25 03:35 Calm 10.00 Fair CLR 70.9 70.2 98% 30.12 0.0
25 03:15 Calm 10.00 Fair CLR 71.1 70.2 97% 30.13 0.0
25 02:55 Calm 10.00 Fair CLR 71.6 70.7 97% 30.13 0.0
25 02:35 Calm 10.00 Fair CLR 71.8 70.7 96% 30.13 0.0
25 02:15 Calm 10.00 Fair CLR 72 70.7 96% 30.13 0.0
25 01:55 Calm 10.00 Fair CLR 72.5 71.1 95% 30.13 0.0
25 01:35 Calm 10.00 Fair CLR 73.4 71.4 94% 30.14 0.0
25 01:15 Calm 10.00 Fair CLR 74.3 72 92% 30.13 0.0
25 00:55 Calm 10.00 Fair CLR 75 72 88.9 75 90% 74 30.13 0.0
25 00:35 Calm 10.00 Fair CLR 75.2 72 90% 75 30.13 0.0
25 00:15 SW 3 10.00 Fair CLR 75.6 71.1 86% 76 30.13 0.0
24 23:55 S 3 10.00 Fair CLR 76.1 70.9 84% 77 30.13 0.0
24 23:35 S 3 10.00 Fair CLR 76.5 70.3 81% 78 30.13 0.0
24 23:15 S 3 10.00 Fair CLR 76.1 70.2 82% 77 30.13 0.0
24 22:55 Calm 10.00 Fair CLR 76.1 70 81% 77 30.13 0.0
24 22:35 SE 3 10.00 Fair CLR 76.6 70 80% 78 30.12 0.0
24 22:15 S 3 10.00 Fair CLR 77.5 70 78% 79 30.11 0.0
24 21:55 S 3 10.00 Fair CLR 78.1 69.8 76% 80 30.11 0.0
24 21:35 SE 3 10.00 Fair CLR 79 69.6 73% 82 30.11 0.0
24 21:15 S 3 10.00 Fair CLR 79.7 68.9 70% 82 30.11 0.0
24 20:55 Calm 10.00 Fair CLR 79.9 68.5 68% 83 30.1 0.0
24 20:35 Calm 10.00 Fair CLR 82.2 67.8 62% 85 30.1 0.0
24 20:15 SE 3 10.00 Fair CLR 84.2 66.4 55% 87 30.09 0.0
24 19:55 SE 3 10.00 Fair CLR 85.8 66.4 52% 88 30.09 0.0
24 19:35 SE 5 10.00 Partly Cloudy SCT060 86.9 66.7 51% 90 30.09 0.0
24 19:15 SE 6 10.00 Partly Cloudy SCT050 88 66.9 50% 91 30.08 0.0
24 18:55 SE 3 10.00 Fair CLR 88.7 65.7 91.2 85.5 47% 91 30.08 0.0
24 18:35 SE 5 10.00 Partly Cloudy SCT065 90 65.3 44% 92 30.08 0.0
24 18:15 E 5 10.00 Partly Cloudy SCT050 90.3 66.7 46% 93 30.08 0.0
24 17:55 NE 6 10.00 Partly Cloudy SCT050 91 66.2 44% 94 30.08 0.0
24 17:35 E 6 10.00 Mostly Cloudy BKN050 BKN065 90 66.4 46% 93 30.08 0.0
24 17:15 E 5 10.00 Mostly Cloudy BKN050 BKN060 89.2 68 50% 93 30.08 0.0
24 16:55 E 3 10.00 Partly Cloudy SCT050 88.5 65.7 47% 91 30.09 0.0
24 16:35 E 8 10.00 Partly Cloudy SCT049 89.4 66.2 46% 92 30.08 0.0
24 16:15 E 7 10.00 Partly Cloudy SCT049 SCT060 SCT080 90.7 66.2 45% 93 30.09 0.0
24 15:55 E 6 10.00 Partly Cloudy SCT049 SCT060 SCT080 89.2 67.1 48% 92 30.09 0.0
24 15:35 NE 6 10.00 Partly Cloudy SCT049 SCT060 89.6 66.9 47% 93 30.1 0.0
24 15:15 N 6 10.00 Mostly Cloudy SCT048 SCT060 BKN070 89.2 67.3 48% 93 30.1 0.0
24 14:55 NE 5 10.00 Partly Cloudy SCT046 SCT060 88.3 68 51% 92 30.11 0.0
24 14:35 NE 7 10.00 Partly Cloudy SCT046 SCT060 87.1 67.6 53% 90 30.12 0.0
24 14:15 NE 3 10.00 Partly Cloudy SCT040 88.2 68.2 52% 92 30.12 0.0
24 13:55 NE 3 10.00 Mostly Cloudy BKN040 BKN065 85.8 68.4 56% 89 30.13 0.0
24 13:35 Calm 10.00 Partly Cloudy SCT036 SCT043 86.5 68.2 54% 90 30.13 0.0
24 13:15 NE 3 10.00 Partly Cloudy SCT036 86.9 69.1 55% 91 30.13 0.0
24 12:55 N 6 10.00 Fair CLR 86.4 69.3 86.4 70.5 57% 91 30.14 0.0
24 12:35 NE 3 10.00 Fair CLR 85.8 69.4 58% 90 30.15 0.0
24 12:15 Calm 10.00 Fair CLR 84.7 70.5 62% 90 30.15 0.0
24 11:55 N 3 10.00 Fair CLR 84.4 70.7 64% 89 30.15 0.0
24 11:35 Calm 10.00 Partly Cloudy SCT028 SCT033 83.5 70.2 64% 88 30.16 0.0
24 11:15 Calm 10.00 Partly Cloudy SCT026 SCT033 SCT044 81.9 70.9 69% 86 30.17 0.0
24 10:55 Calm 10.00 Partly Cloudy SCT024 SCT060 80.1 70 71% 83 30.17 0.0
24 10:35 Calm 10.00 Partly Cloudy SCT022 80.2 70.7 73% 84 30.17 0.0
24 10:15 N 5 10.00 Partly Cloudy SCT020 79.2 70.3 74% 82 30.17 0.0
24 09:55 N 5 10.00 Partly Cloudy SCT022 78.4 70 75% 81 30.16 0.0
24 09:35 NW 5 10.00 Partly Cloudy SCT022 77.9 69.8 76% 80 30.16 0.0
24 09:15 NW 5 10.00 Partly Cloudy SCT012 SCT023 77.4 71.1 81% 79 30.15 0.0
24 08:55 N 3 10.00 Fair CLR 75.7 72 88% 76 30.15 0.0
24 08:35 Calm 10.00 Fair CLR 74.1 73.6 98% 30.15 0.0
24 08:15 Calm 10.00 Fair CLR 73.8 73.2 98% 30.14 0.0
24 07:55 Calm 3.00 Fog/Mist SCT002 SCT060 72.9 72.5 99% 30.14 0.0
24 07:35 Calm 2.50 Fog/Mist BKN002 BKN060 72.1 71.6 98% 30.13 0.0
24 07:15 Calm 0.50 Fog OVC002 70.7 70.3 99% 30.13 0.0
24 06:55 Calm 0.25 Fog OVC002 70.7 70 72.7 70.5 98% 30.13 0.0
24 06:35 Calm 4.00 Fog/Mist CLR 70.9 70.5 99% 30.13 0.0
24 06:15 Calm 4.00 Fog/Mist SCT060 70.9 70.5 99% 30.13 0.0
24 05:55 Calm 7.00 Mostly Cloudy SCT018 BKN060 71.6 71.1 98% 30.13 0.0
24 05:35 Calm 7.00 Overcast BKN018 BKN046 OVC060 71.6 71.1 98% 30.13 0.0
24 05:15 Calm 10.00 Overcast SCT037 BKN045 OVC060 71.2 70.7 98% 30.13 0.0
24 04:55 Calm 7.00 Mostly Cloudy BKN045 70.7 70.2 98% 30.13 0.0
24 04:35 Calm 10.00 Partly Cloudy SCT047 70.7 70 98% 30.13 0.0
24 04:15 Calm 7.00 Fair CLR 70.5 70 98% 30.13 0.0
24 03:55 Calm 7.00 Fair CLR 70.7 70.2 98% 30.13 0.0
24 03:35 Calm 5.00 Fog/Mist SCT013 71.2 70.7 98% 30.13 0.0
24 03:15 Calm 7.00 Mostly Cloudy BKN013 71.6 70.9 98% 30.13 0.0
24 02:55 Calm 7.00 Partly Cloudy SCT013 71.2 70.7 98% 30.12 0.0
24 02:35 Calm 7.00 Mostly Cloudy BKN011 71.6 71.1 98% 30.12 0.0
24 02:15 Calm 7.00 Mostly Cloudy BKN011 71.6 70.9 98% 30.12 0.0
24 01:55 Calm 7.00 Partly Cloudy SCT013 71.6 70.9 98% 30.11 0.0
24 01:35 Calm 5.00 Fog/Mist SCT013 71.2 70.5 98% 30.11 0.0
24 01:15 Calm 7.00 Fair CLR 71.6 70.7 97% 30.1 0.0
24 00:55 Calm 10.00 Fair CLR 72.7 71.8 80.2 72.7 97% 30.11 0.0
24 00:35 Calm 10.00 Fair CLR 72.9 72 97% 30.1 0.0
24 00:15 Calm 10.00 Fair CLR 72.9 71.8 96% 30.1 0.0
23 23:55 Calm 10.00 Fair CLR 73 71.8 96% 30.09 0.0
23 23:35 Calm 10.00 Fair CLR 73.6 72.1 95% 30.1 0.0
23 23:15 Calm 10.00 Fair CLR 74.1 72.1 94% 30.1 0.0
23 22:55 Calm 10.00 Fair CLR 74.3 72.1 93% 30.1 0.0
23 22:35 Calm 10.00 Fair CLR 74.3 72.5 94% 30.1 0.0
23 22:15 Calm 10.00 Partly Cloudy SCT017 74.3 72.3 94% 30.09 0.0
23 21:55 Calm 10.00 Partly Cloudy SCT017 74.7 72.3 92% 30.09 0.0
23 21:35 Calm 10.00 Fair CLR 74.7 72.5 93% 30.07 0.0
23 21:15 Calm 10.00 Fair CLR 75.2 72.3 91% 74 30.07 0.0
23 20:55 Calm 10.00 Partly Cloudy SCT019 75.7 71.6 87% 76 30.06 0.0
23 20:35 Calm 10.00 Partly Cloudy SCT019 76.6 71.6 84% 78 30.06 0.0
23 20:15 Calm 10.00 Fair CLR 77.9 71.2 80% 80 30.06 0.0
23 19:55 Calm 10.00 Fair CLR 79.2 71.1 76% 82 30.06 0.0
23 19:35 Calm 10.00 Fair CLR 78.8 71.6 79% 82 30.06 0.0
23 19:15 E 3 10.00 Fair CLR 79.5 70.5 74% 83 30.06 0.0
23 18:55 SE 5 10.00 Partly Cloudy SCT110 79.2 70.2 81.5 74.1 74% 82 30.05 0.0 0.06
23 18:35 SE 3 10.00 Partly Cloudy SCT100 79.9 70.5 73% 83 30.06 0.0
23 18:15 SE 5 10.00 Partly Cloudy SCT100 79.9 70.3 73% 83 30.06 0.0
23 17:55 SE 6 10.00 Partly Cloudy SCT018 80.6 70.7 72% 84 30.06 0.0
23 17:35 E 3 10.00 Partly Cloudy SCT018 SCT075 81.3 71.4 72% 86 30.06 0.0
23 17:15 E 5 10.00 Partly Cloudy SCT075 79.2 71.1 76% 82 30.06 0.0
23 16:55 NE 7 10.00 Partly Cloudy SCT065 78.6 70.9 77% 81 30.06 0.0
23 16:35 E 6 10.00 Mostly Cloudy SCT026 BKN049 BKN055 77.7 71.6 82% 80 30.06 0.0
23 16:15 E 6 10.00 Overcast SCT014 BKN026 OVC049 77 72.3 86% 78 30.07 0.0
23 15:55 NE 5 10.00 Overcast SCT010 BKN014 OVC036 76.1 72.7 89% 76 30.07 0.0 0.06
23 15:35 NE 6 10.00 Overcast SCT006 BKN012 OVC038 75.9 73.8 93% 76 30.07 0.0
23 15:15 NE 8 10.00 Light Rain BKN006 OVC012 74.7 73.6 96% 30.07 0.0
23 14:55 NE 5 10.00 Mostly Cloudy BKN006 BKN028 BKN034 75.4 74.7 98% 74 30.07 0.0 0.02
23 14:35 NE 9 10.00 Light Rain BKN004 BKN013 BKN028 74.5 73.8 98% 30.06 0.0 0.02
23 14:15 NE 5 7.00 Rain SCT005 BKN008 OVC027 74.3 73.6 98% 30.08 0.0 0.01
23 13:55 E 7 7.00 Thunderstorm Rain in Vicinity OVC005 74.5 73.8 98% 30.09 0.0 0.04
23 13:35 E 5 5.00 Rain OVC005 75 74.3 98% 73 30.1 0.0 0.02
23 13:15 E 3 5.00 Light Rain BKN005 BKN010 BKN055 74.7 73.9 98% 30.09 0.0 0.01
23 12:55 E 3 7.00 Light Rain CLR 74.1 73.4 74.3 73.4 98% 30.08 0.0 0.05 0.53
23 12:40 Calm 5.00 Light Rain SCT017 SCT035 SCT047 74.3 73.4 97% 30.08 0.0 0.04
23 12:15 Calm 4.00 Rain SCT003 SCT017 BKN032 74.3 73.4 97% 30.1 0.0 0.02
23 11:55 Calm 5.00 Light Rain SCT003 SCT007 SCT013 73.8 73.2 98% 30.1 0.0 0.12
23 11:35 NE 3 2.50 Rain BKN005 BKN013 BKN037 74.3 73.4 97% 30.09 0.0 0.09
23 11:15 Calm 2.50 Rain SCT011 BKN039 BKN048 74.3 73.4 97% 30.1 0.0 0.04
23 10:55 Calm 2.00 Rain SCT006 BKN011 OVC047 74.1 73.4 98% 30.1 0.0 0.11
23 10:35 Calm 2.50 Rain BKN004 OVC009 73.9 73.4 98% 30.1 0.0 0.06
23 10:15 Calm 4.00 Rain SCT004 SCT009 BKN047 73.9 73.4 98% 30.1 0.0 0.03
23 09:55 Calm 3.00 Rain SCT002 SCT017 BKN049 73.8 73.2 98% 30.09 0.0 0.15 0.23
23 09:35 Calm 2.00 Rain SCT002 BKN009 OVC041 73.9 73.4 98% 30.08 0.0 0.11
23 09:15 Calm 1.25 Heavy Rain BKN002 OVC009 73.8 73 98% 30.09 0.0 0.05
23 08:55 Calm 1.75 Rain OVC002 73.8 73 98% 30.09 0.0 0.05
23 08:35 Calm 5.00 Thunderstorm Light Rain in Vicinity BKN002 73.6 72.9 98% 30.08 0.0 0.02
23 08:15 Calm 4.00 Light Rain BKN002 73.6 72.9 98% 30.07 0.0 0.01
23 07:55 Calm 4.00 Drizzle OVC002 73.6 72.9 98% 30.06 0.0 0.02
23 07:35 Calm 5.00 Drizzle BKN004 73.4 72.7 98% 30.06 0.0 0.02
23 07:15 Calm 5.00 Drizzle BKN004 73.6 72.9 98% 30.06 0.0 0.01
23 06:55 Calm 7.00 Thunderstorm Drizzle in Vicinity SCT004 SCT040 SCT048 73.4 72.5 73.4 72.5 97% 30.06 0.0 0.08 0.13
23 06:35 Calm 7.00 Rain SCT026 SCT034 SCT040 73.4 72.5 97% 30.06 0.0 0.08
23 06:15 Calm 1.75 Rain SCT016 BKN026 BKN035 73 72.3 98% 30.05 0.0 0.06
23 05:55 Calm 5.00 Drizzle CLR 73.2 72.5 98% 30.04 0.0 0.03
23 05:35 Calm 4.00 Light Rain BKN003 72.9 72 97% 30.04 0.0 0.03
23 05:15 Calm 7.00 Light Rain OVC003 73 72.1 97% 30.03 0.0 0.01
23 04:55 Calm 7.00 Overcast OVC005 72.9 72.1 98% 30.03 0.0 0.01
23 04:35 Calm 10.00 Light Drizzle OVC005 72.7 72 98% 30.03 0.0 0.01
23 04:15 Calm 10.00 Rain OVC005 73 72.1 97% 30.03 0.0 0.01
23 03:55 Calm 10.00 Light Rain OVC005 73 72.1 97% 30.03 0.0 0.01 0.01
23 03:35 Calm 10.00 Overcast OVC005 73 72.1 97% 30.03 0.0
23 03:15 Calm 10.00 Overcast OVC007 72.9 72.1 98% 30.03 0.0
23 02:55 Calm 10.00 Light Rain OVC007 72.9 72.1 98% 30.03 0.0
23 02:35 Calm 10.00 Light Rain OVC007 72.5 71.8 98% 30.04 0.0
23 02:15 Calm 10.00 Light Drizzle OVC007 72.5 71.8 98% 30.04 0.0
23 01:55 Calm 10.00 Overcast OVC007 72.9 72.1 98% 30.04 0.0
23 01:35 Calm 10.00 Drizzle OVC007 72.7 72 98% 30.04 0.0
23 01:15 Calm 10.00 Overcast BKN007 BKN048 OVC065 72.7 72 98% 30.04 0.0
23 00:55 Calm 10.00 Overcast BKN009 BKN044 OVC110 72.7 71.8 80.6 71.6 97% 30.05 0.0 0.01 0.83
23 00:35 Calm 10.00 Overcast OVC110 72.5 71.6 97% 30.05 0.0 0.01
23 00:15 Calm 10.00 Partly Cloudy SCT110 72.5 71.6 97% 30.04 0.0 0.01
22 23:55 Calm 10.00 Mostly Cloudy BKN110 72.3 71.4 97% 30.04 0.0
22 23:35 Calm 10.00 Overcast SCT050 OVC120 72.5 71.6 97% 30.05 0.0
22 23:15 Calm 10.00 Mostly Cloudy BKN120 72.5 71.6 97% 30.05 0.0
22 22:55 Calm 10.00 Mostly Cloudy BKN110 72.1 71.2 97% 30.04 0.0
22 22:35 Calm 10.00 Fair CLR 72.1 71.2 97% 30.04 0.0
22 22:15 E 3 10.00 Fair CLR 72 70.9 96% 30.04 0.0
22 21:55 E 6 7.00 Light Rain SCT026 SCT040 BKN060 71.6 70.5 96% 30.05 0.0 0.24 0.82
22 21:35 Calm 5.00 Light Rain SCT015 SCT024 BKN046 72 70.2 94% 30.03 0.0 0.2
22 21:15 Calm 2.50 Thunderstorm Rain NULL 72 70 94% 30.03 0.0 0.15
22 20:55 W 16 G 23 1.25 Thunderstorm Heavy Rain SCT007 BKN021 OVC041 72.5 70 92% 30.04 0.0 0.5
22 20:35 W 6 10.00 Thunderstorm Rain SCT025 SCT040 BKN070 78.8 71.6 79% 82 30.02 0.0
22 20:15 N 6 10.00 Thunderstorm in Vicinity BKN025 OVC038 79.3 71.8 78% 83 29.99 0.0
22 19:55 N 3 10.00 Overcast BKN025 OVC040 79.9 71.8 76% 84 29.99 0.0
22 19:35 Calm 10.00 Mostly Cloudy SCT025 BKN070 80.4 71.6 75% 84 30 0.0
22 19:15 N 3 10.00 Fair CLR 80.6 71.8 75% 85 29.98 0.0
22 18:55 N 5 10.00 Fair CLR 80.8 71.2 81.5 71.1 73% 85 29.99 0.0 0.1
22 18:35 N 5 10.00 Fair CLR 81.1 71.1 72% 85 29.98 0.0
22 18:15 N 3 10.00 Fair CLR 80.8 71.6 74% 85 29.98 0.0
22 17:55 N 5 10.00 Fair CLR 80.6 71.8 75% 85 29.99 0.0
22 17:35 N 6 10.00 Fair CLR 81.3 71.6 72% 86 29.99 0.0
22 17:15 NW 6 10.00 Fair CLR 80.8 72 75% 85 29.99 0.0
22 16:55 NW 3 10.00 Fair CLR 80.6 71.8 75% 85 30 0.0
22 16:35 N 3 10.00 Fair CLR 78.1 72 82% 80 30 0.0
22 16:15 Calm 10.00 Fair CLR 77.5 71.6 82% 79 30.01 0.0
22 15:55 N 3 10.00 Fair CLR 77.9 72 82% 80 30.02 0.0 0.1
22 15:35 Calm 10.00 Fair CLR 76.6 71.2 83% 78 30 0.0
22 15:15 Calm 10.00 Fair CLR 73.9 72.1 94% 30.01 0.0
22 14:55 Calm 10.00 Light Rain CLR 73.4 72.1 96% 30.02 0.0 0.02
22 14:40 N 3 10.00 Fair CLR 73.4 72 95% 30.03 0.0 0.02
22 14:15 Calm 7.00 Thunderstorm Rain in Vicinity SCT036 BKN050 OVC065 72.1 71.1 96% 30.04 0.0 0.02
22 13:55 Calm 7.00 Rain SCT040 BKN065 OVC075 71.6 70.3 96% 30.03 0.0 0.08
22 13:35 S 5 10.00 Thunderstorm Light Rain SCT048 BKN065 OVC090 71.2 69.8 95% 30.03 0.0 0.05
22 13:15 SW 8 7.00 Thunderstorm Light Rain SCT007 BKN035 OVC047 71.6 70 95% 30.05 0.0 0.05
22 12:55 E 9 0.75 Thunderstorm Heavy Rain OVC009 71.4 69.6 81.1 71.4 94% 30.06 0.0 1.66 1.78
22 12:35 NW 13 G 21 0.75 Thunderstorm Heavy Rain BKN005 OVC011 72.5 70.9 95% 30.06 0.0 0.84
22 12:15 NW 8 2.00 Thunderstorm Heavy Rain SCT005 BKN008 OVC014 76.8 75 94% 78 30.06 0.0 0.28
22 11:55 NE 3 3.00 Thunderstorm Heavy Rain SCT014 BKN022 OVC027 78.8 74.7 87% 82 30.04 0.0 0.08
22 11:35 N 3 10.00 Overcast SCT019 OVC027 79 74.1 85% 83 30.05 0.0
Date Time (cdt) Wind (mph) Vis. (mi.) Weather Sky Cond. Air Dwpt Max. Min. Relative Humidity Wind Chill (°F) Heat Index (°F) altimeter (in) sea level (mb) 1 hr 3 hr 6 hr
6 hour
Temperature (ºF) Pressure Precipitation (in)